Welcome to the New NWS' Forecast!
Most changes are behind the scenes, but click here for differences you might notice.

Regional Weather Roundup (RWR)

Issued by National Weather Service (NWS)

                            
645 
NZUS99 KTBW 150417
RWRTPA
FLORIDA REGIONAL WEATHER ROUNDUP
NATIONAL WEATHER SERVICE TAMPA BAY RUSKIN FL
1200 AM EDT WED AUG 15 2018

NOTE: "FAIR" INDICATES FEW OR NO CLOUDS BELOW 12,000 FEET WITH NO
SIGNIFICANT WEATHER AND/OR OBSTRUCTIONS TO VISIBILITY.


  
STATION/POSITION



FLZ042-048>051-055-056-060-061-150500-
EXTRA STATIONS
  
CITY           SKY/WX    TMP DP  RH WIND       PRES   REMARKS
Everglades Cty NOT AVBL                                               
CRYSTAL RIVER    N/A     77  73  88 CALM      30.10R                  
SEBRING        FAIR      78  73  85 E3        30.10R                  
EGLIN AFB      MOCLDY    74  73  96 CALM      30.03F                  
CANAVERAL      FAIR      76  73  88 CALM      30.09R                  

$$
FLZ001>010-012>015-150500-
PANHANDLE FLORIDA
  
CITY           SKY/WX    TMP DP  RH WIND       PRES   REMARKS
PENSACOLA      FAIR      78  73  84 MISG      30.02F                  
CRESTVIEW      FAIR      74  72  93 CALM      30.04F                  
VALPARAISO     PTCLDY    76  71  85 N2        30.02F                  
MARY ESTHER    MOCLDY    75  69  80 CALM      30.01F                  
PANAMA CITY    FAIR      76  73  91 NE3       30.03S                  
TYNDALL AFB    FAIR      79  77  94 E5        30.04R                  
APALACHICOLA   FAIR      79  79 100 CALM      30.05R                  

STATION/POSITION


29.2N   88.2W
28.8N   86.0W

$$
FLZ011-016>039-150500-
NORTH FLORIDA
  
CITY           SKY/WX    TMP DP  RH WIND       PRES   REMARKS
MARIANNA       FAIR      78  76  93 SE5       30.05R                  
TALLAHASSEE    FAIR      76  74  93 N3        30.06R                  
PERRY          FAIR      77  75  93 CALM      30.07S                  
CROSS CITY     FAIR      77 N/A N/A CALM      30.08R                  
GAINESVILLE    FAIR      78  73  84 S6        30.12R                  
MAYPORT NAS    MOCLDY    77  73  87 S6        30.08S                  
JACKSONVILLE   MOCLDY    78  75  90 CALM      30.07S                  
JAX NAS        MOCLDY    81  75  82 S9        30.09R                  
JAX CRAIG      FAIR      77  76  96 S7        30.08S                  
ST AUGUSTINE   FAIR      77  73  87 SW3       30.10R                  

STATION/POSITION


KEATON BEACH
31.4N   80.9W
ST AUGUSTINE

$$
FLZ040-043>046-052-053-057-058-063-150500-
CENTRAL FLORIDA
  
CITY           SKY/WX    TMP DP  RH WIND       PRES   REMARKS
OCALA          FAIR      74  73  97 CALM      30.11R                  
LEESBURG       FAIR      76  74  93 CALM      30.11R                  
SANFORD        FAIR      77  75  93 SE7       30.09S                  
ORLANDO EXEC   FAIR      79  73  82 SE6       30.10S                  
ORLANDO INTL   FAIR      76  74  93 S5        30.11R                  
KISSIMMEE      MOCLDY    78  73  84 E3        30.12R                  
WINTER HAVEN   FAIR      77  75  93 E3        30.12R                  
LAKELAND       MOCLDY    77  72  83 CALM      30.11R                  
BARTOW           N/A     73 N/A N/A CALM      30.11                   

$$
FLZ041-047-054-059-064-150500-
EAST CENTRAL FLORIDA
  
CITY           SKY/WX    TMP DP  RH WIND       PRES   REMARKS
DAYTONA BEACH  FAIR      75  75 100 CALM      30.10R                  
JFK SPACE CTR  MOCLDY   N/A N/A N/A CALM        N/A                   
PATRICK AFB    FAIR      77  75  93 E3        30.10R                  
MELBOURNE      FAIR      80  73  79 CALM      30.10R                  
VERO BEACH     FAIR      78  74  87 SE3       30.10R                  
FT PIERCE      FAIR      74  73  97 CALM      30.09S                  
STUART         FAIR      77  73  88 CALM      30.10R                  

STATION/POSITION


28.9N   78.5W

$$
FLZ042-048>051-055-056-060-061-150500-
WEST CENTRAL FLORIDA
  
CITY           SKY/WX    TMP DP  RH WIND       PRES   REMARKS
BROOKSVILLE    FAIR      75  73  93 E5        30.11R                  
TAMPA          FAIR      82  72  71 S3        30.09R                  
MACDILL AFB    FAIR      76  73  88 CALM      30.09R                  
ST PETERSBURG  FAIR      79  75  87 SE3       30.09R                  
ST PET-WHITTED FAIR      80  74  81 SE5       30.07R                  
SARASOTA       FAIR      76  73  91 E3        30.07R                  

STATION/POSITION


CEDAR KEY
VENICE

$$
FLZ062-065-066-069-070-075>078-150500-
SOUTHWEST FLORIDA AND KEYS
  
CITY           SKY/WX    TMP DP  RH WIND       PRES   REMARKS
PUNTA GORDA    FAIR      76  73  91 E3        30.09R                  
FT MYERS       FAIR      76  73  91 E3        30.07S                  
SOUTHWEST INTL FAIR      76  73  91 NE3       30.08R                  
NAPLES         FAIR      77  74  90 E5        30.07S                  
MARATHON       FAIR      84  75  74 E7        30.05S HX  92           
KEY WEST NAS   FAIR      83  72  69 E15       30.04S                  
KEY WEST INTL  FAIR      86  72  62 SE13      30.05R HX  92           

STATION/POSITION


VENICE
26.0N   85.6W
SAND KEY
SOMBRERO KEY
LONG KEY

$$
FLZ067-068-071>074-150500-
SOUTHEAST FLORIDA 
  
CITY           SKY/WX    TMP DP  RH WIND       PRES   REMARKS
W PALM BEACH   FAIR      81  76  84 NE3       30.09R                  
POMPANO BEACH  FAIR      85  76  74 SE8       30.08R HX  94           
FT LAUDER-EXEC FAIR      84  77  79 E7        30.07S HX  94           
FT LAUDERDALE  FAIR      84  76  76 E10       30.07S HX  93           
PEMBROKE PINES FAIR      82  75  79 CALM      30.08F                  
OPA LOCKA      FAIR      83  76  79 CALM      30.08S HX  91           
MIAMI          FAIR      83  74  74 E6        30.07S                  
WEST KENDALL   FAIR      79  74  84 CALM      30.07S                  
HOMESTEAD      FAIR      81  73  77 E5        30.06F                  

STATION/POSITION


LAKE WORTH
FOWEY ROCKS
SETTLEMENT POINT

$$